星链-32714 (STARLINK-32714)

导读

STARLINK-32714是美国星链计划中的一颗卫星,于2025年1月6日北京时间8时发射升空。作为 SpaceX 星链星座组网的一员,它主要服务于全球卫星互联网项目,为偏远地区、网络基础设施薄弱区域等提供高速低延迟的互联网接入服务,进一步推进星链星座的全球覆盖布局。

Basic Information
目录编号:
62499
目录名称:
STARLINK-32714
国际标识:
2025-003N
轨道中心:
EARTH
卫星名称:
星链-32714
卫星全名:
星链-32714 (STARLINK-32714)
卫星状态:
在轨 (已飞行606 天)
发射日期:
2025-01-06 UTC
国别 :
美国 (US)
星等 :
--
Orbit Information
数据来源 国际轨道数据
星历时间: 2026-09-03T17:14:26+0800
1天前
查看轨道信息
半长轴: 6861.151km
偏心率: 0.0000567
轨道倾角: 43.002°
近地点辐角 285.402°
升交点赤经 5.798°
平近点角 74.677°
近地点: 482.624km
远地点: 483.404km
周期: 94.266分钟
每日圈数: 15.275918
Detailed Information
固有亮度:
5
最大亮度:
2.5
卫星平台:
Starlink V1.0
覆盖范围:
全球
运营商:
太空探索技术公司
运营商所在国:
美国
制造商(研发单位):
太空探索技术公司
制造商所在国:
美国
使用方式:
暂无
Satellite Introduction
Starlink 计划是 SpaceX 推出的全球卫星互联网项目,通过发射低轨道卫星,为全球尤其是偏远地区提供高速、低延迟的互联网服务。自 2019 年起,Starlink 已部署数千颗卫星,旨在缩小全球数字鸿沟,推动互联网普及。该项目还为军事、航空等行业提供通信支持,带来广泛经济效益。
2D Orbit Map
3D Orbit Map
Orbit Altitude Analysis Chart
Orbit Inclination Analysis Chart
Orbit Comprehensive Analysis Chart
View Comprehensive Chart
Conjunction Data List
Event ID Objects TCA Miss Dist (km) Collision Risk Probability Collision Risk Index (CRI) Action
CDM_260906-144106-249906-332721
2026-09-06T
14:41:22+0000
0.309 km
远距离
3.619216E-4 高风险 0.86
CDM_260906-004005-862706-249921
2026-09-06T
00:40:17+0000
0.441 km
远距离
2.11899E-4 高风险 0.82
CDM_260906-161506-249906-332721
2026-09-06T
16:15:31+0000
0.585 km
远距离
9.213412E-5 中风险 0.74
CDM_260906-085405-652006-249921
2026-09-06T
08:54:01+0000
0.730 km
远距离
4.311354E-5 中风险 0.68
CDM_260906-054306-249906-793921
2026-09-06T
05:43:03+0000
0.795 km
远距离
3.756025E-5 中风险 0.66
CDM_260906-040806-249906-793921
2026-09-06T
04:08:53+0000
0.926 km
远距离
2.262827E-5 中风险 0.62
CDM_260906-130706-249906-332721
2026-09-06T
13:07:13+0000
1.002 km
极远距离
1.683245E-5 中风险 0.6
CDM_260906-083105-690206-249921
2026-09-06T
08:31:43+0000
1.310 km
极远距离
7.981808E-6 低风险 0.53
CDM_260906-021405-862706-249921
2026-09-06T
02:14:26+0000
1.546 km
极远距离
4.578083E-6 低风险 0.48
CDM_260906-113306-249906-332721
2026-09-06T
11:33:04+0000
1.752 km
极远距离
2.678542E-6 低风险 0.44